| time (UTC) | temp C | wind direction | speed KPH | gust KPH | rain 1hr cm | rain 24hr cm | rain mn cm | humidity % | barometer mb |
| 20260505110950 | 24 | 161 | 4.8 | 6.4 | 0.00 | 0.00 | 0.00 | 44 | 1006.2 |
| 20260505110421 | 24 | 158 | 6.4 | 12.9 | 0.00 | 0.00 | 0.00 | 46 | 1006.1 |
| 20260505102220 | 23 | 267 | 3.2 | 6.4 | 0.00 | 0.00 | 0.00 | 47 | 1006.6 |
| 20260505101650 | 23 | 304 | 4.8 | 4.8 | 0.00 | 0.00 | 0.00 | 49 | 1006.9 |
| 20260505101342 | 23 | 37 | 1.6 | 4.8 | 0.00 | 0.00 | 0.00 | 50 | 1006.8 |
| 20260505100551 | 22 | 169 | 1.6 | 6.4 | 0.00 | 0.00 | 0.00 | 50 | 1007.0 |
| 20260505100051 | 22 | 283 | 4.8 | 9.7 | 0.00 | 0.00 | 0.00 | 50 | 1007.0 |
| 20260505095521 | 22 | 260 | 3.2 | 6.4 | 0.00 | 0.00 | 0.00 | 51 | 1006.9 |
| 20260505095021 | 23 | 181 | 1.6 | 12.9 | 0.00 | 0.00 | 0.00 | 49 | 1007.1 |
| 20260505094451 | 23 | 61 | 0.0 | 9.7 | 0.00 | 0.00 | 0.00 | 49 | 1007.3 |
| 20260505093921 | 22 | 140 | 4.8 | 11.3 | 0.00 | 0.00 | 0.00 | 50 | 1007.1 |
| 20260505093421 | 22 | 167 | 3.2 | 4.8 | 0.00 | 0.00 | 0.00 | 51 | 1007.4 |
| 20260505092851 | 22 | 174 | 4.8 | 6.4 | 0.00 | 0.00 | 0.00 | 53 | 1007.3 |
| 20260505092351 | 22 | 42 | 3.2 | 3.2 | 0.00 | 0.00 | 0.00 | 50 | 1007.5 |
| 20260505091851 | 22 | 164 | 4.8 | 6.4 | 0.00 | 0.00 | 0.00 | 50 | 1007.4 |
| 20260505091611 | 22 | 165 | 3.2 | 6.4 | 0.00 | 0.00 | 0.00 | 53 | 1007.3 |
| 20260505090851 | 22 | 155 | 0.0 | 3.2 | 0.00 | 0.00 | 0.00 | 50 | 1007.7 |
| 20260505090350 | 22 | 69 | 4.8 | 11.3 | 0.00 | 0.00 | 0.00 | 52 | 1007.6 |
| 20260505085851 | 21 | 146 | 1.6 | 3.2 | 0.00 | 0.00 | 0.00 | 54 | 1007.7 |
| 20260505085350 | 22 | 178 | 3.2 | 4.8 | 0.00 | 0.00 | 0.00 | 53 | 1007.7 |
| 20260505085110 | 21 | 97 | 3.2 | 4.8 | 0.00 | 0.00 | 0.00 | 55 | 1007.7 |
| 20260505084320 | 21 | 161 | 1.6 | 9.7 | 0.00 | 0.00 | 0.00 | 54 | 1007.6 |
| 20260505084041 | 20 | 211 | 3.2 | 4.8 | 0.00 | 0.00 | 0.00 | 55 | 1007.7 |
| 20260505083250 | 21 | 202 | 1.6 | 4.8 | 0.00 | 0.00 | 0.00 | 55 | 1007.7 |
| 20260505082720 | 21 | 252 | 4.8 | 4.8 | 0.00 | 0.00 | 0.00 | 55 | 1007.5 |
| 20260505082220 | 20 | 127 | 3.2 | 4.8 | 0.00 | 0.00 | 0.00 | 55 | 1007.9 |
| 20260505081942 | 20 | 179 | 1.6 | 3.2 | 0.00 | 0.00 | 0.00 | 56 | 1007.8 |
| 20260505081150 | 20 | 189 | 0.0 | 6.4 | 0.00 | 0.00 | 0.00 | 57 | 1007.7 |
| 20260505080651 | 20 | 155 | 1.6 | 3.2 | 0.00 | 0.00 | 0.00 | 56 | 1007.9 |
| 20260505080150 | 19 | 119 | 1.6 | 6.4 | 0.00 | 0.00 | 0.00 | 59 | 1007.9 |
| 20260505075620 | 19 | 226 | 1.6 | 4.8 | 0.00 | 0.00 | 0.00 | 58 | 1007.9 |
| 20260505075310 | 19 | 300 | 0.0 | 3.2 | 0.00 | 0.00 | 0.00 | 59 | 1008.0 |
| 20260505074550 | 18 | 226 | 1.6 | 3.2 | 0.00 | 0.00 | 0.00 | 60 | 1008.1 |
| 20260505074050 | 18 | 171 | 3.2 | 4.8 | 0.00 | 0.00 | 0.00 | 59 | 1008.0 |
| 20260505073520 | 19 | 181 | 1.6 | 6.4 | 0.00 | 0.00 | 0.00 | 58 | 1008.0 |
| 20260505073211 | 19 | 167 | 1.6 | 4.8 | 0.00 | 0.00 | 0.00 | 61 | 1008.2 |
| 20260505072450 | 18 | 134 | 4.8 | 6.4 | 0.00 | 0.00 | 0.00 | 59 | 1008.2 |
| 20260505071950 | 18 | 175 | 3.2 | 4.8 | 0.00 | 0.00 | 0.00 | 62 | 1008.2 |
| 20260505071450 | 18 | 156 | 1.6 | 6.4 | 0.00 | 0.00 | 0.00 | 62 | 1008.2 |
| 20260505070921 | 18 | 167 | 3.2 | 4.8 | 0.00 | 0.00 | 0.00 | 62 | 1008.3 |
| 20260505070641 | 18 | 163 | 3.2 | 4.8 | 0.00 | 0.00 | 0.00 | 62 | 1008.2 |
| 20260505065851 | 17 | 162 | 3.2 | 3.2 | 0.00 | 0.00 | 0.00 | 65 | 1008.1 |
| 20260505065351 | 17 | 136 | 4.8 | 6.4 | 0.00 | 0.00 | 0.00 | 66 | 1008.4 |
| 20260505064851 | 17 | 164 | 3.2 | 11.3 | 0.00 | 0.00 | 0.00 | 66 | 1008.5 |
| 20260505064321 | 17 | 186 | 1.6 | 3.2 | 0.00 | 0.00 | 0.00 | 66 | 1008.4 |
| 20260505063751 | 17 | 188 | 3.2 | 6.4 | 0.00 | 0.00 | 0.00 | 66 | 1008.4 |
| 20260505063221 | 17 | 174 | 3.2 | 4.8 | 0.00 | 0.00 | 0.00 | 67 | 1008.4 |
| 20260505062651 | 16 | 168 | 3.2 | 3.2 | 0.00 | 0.00 | 0.00 | 67 | 1008.4 |
| 20260505062121 | 16 | 192 | 3.2 | 9.7 | 0.00 | 0.00 | 0.00 | 68 | 1008.4 |
| 20260505061621 | 16 | 161 | 4.8 | 6.4 | 0.00 | 0.00 | 0.00 | 68 | 1008.3 |
| 20260505061340 | 16 | 150 | 3.2 | 4.8 | 0.00 | 0.00 | 0.00 | 69 | 1008.5 |
| 20260505060620 | 16 | 187 | 4.8 | 6.4 | 0.00 | 0.00 | 0.00 | 68 | 1008.5 |
| 20260505060051 | 16 | 137 | 3.2 | 9.7 | 0.00 | 0.00 | 0.00 | 68 | 1008.5 |
| 20260505055521 | 16 | 178 | 1.6 | 9.7 | 0.00 | 0.00 | 0.00 | 67 | 1008.5 |
| 20260505054951 | 16 | 158 | 3.2 | 6.4 | 0.00 | 0.00 | 0.00 | 67 | 1008.4 |
| 20260505054711 | 16 | 169 | 3.2 | 11.3 | 0.00 | 0.00 | 0.00 | 68 | 1008.3 |
| 20260505053921 | 15 | 140 | 4.8 | 6.4 | 0.00 | 0.00 | 0.00 | 69 | 1008.4 |
| 20260505053421 | 15 | 181 | 6.4 | 6.4 | 0.00 | 0.00 | 0.00 | 71 | 1008.4 |
| 20260505052921 | 15 | 187 | 3.2 | 4.8 | 0.00 | 0.00 | 0.00 | 71 | 1008.3 |
| 20260505052421 | 15 | 142 | 3.2 | 6.4 | 0.00 | 0.00 | 0.00 | 72 | 1008.4 |
| 20260505051851 | 14 | 146 | 3.2 | 6.4 | 0.00 | 0.00 | 0.00 | 73 | 1008.1 |
| 20260505051351 | 14 | 126 | 3.2 | 3.2 | 0.00 | 0.00 | 0.00 | 74 | 1008.4 |
| 20260505051110 | 13 | 124 | 3.2 | 4.8 | 0.00 | 0.00 | 0.00 | 75 | 1008.1 |
| 20260505050321 | 13 | 134 | 3.2 | 4.8 | 0.00 | 0.00 | 0.00 | 76 | 1008.2 |
| 20260505041051 | 11 | 160 | 0.0 | 0.0 | 0.00 | 0.00 | 0.00 | 80 | 1007.9 |
| 20260505040551 | 11 | 161 | 0.0 | 0.0 | 0.00 | 0.00 | 0.00 | 80 | 1008.2 |
| 20260505040051 | 11 | 161 | 0.0 | 1.6 | 0.00 | 0.00 | 0.00 | 79 | 1008.1 |
| 20260505035521 | 11 | 86 | 0.0 | 1.6 | 0.00 | 0.00 | 0.00 | 79 | 1008.3 |
| 20260505035240 | 11 | 66 | 3.2 | 4.8 | 0.00 | 0.00 | 0.00 | 80 | 1008.1 |
| 20260505034450 | 11 | 68 | 3.2 | 6.4 | 0.00 | 0.00 | 0.00 | 80 | 1008.2 |
| 20260505033921 | 11 | 59 | 3.2 | 6.4 | 0.00 | 0.00 | 0.00 | 80 | 1008.2 |
| 20260505033421 | 11 | 56 | 3.2 | 3.2 | 0.00 | 0.00 | 0.00 | 79 | 1008.1 |
| 20260505032851 | 11 | 87 | 0.0 | 3.2 | 0.00 | 0.00 | 0.00 | 78 | 1008.1 |
| 20260505032321 | 11 | 76 | 1.6 | 3.2 | 0.00 | 0.00 | 0.00 | 78 | 1008.3 |
| 20260505032041 | 12 | 49 | 0.0 | 1.6 | 0.00 | 0.00 | 0.00 | 78 | 1008.2 |
| 20260505031250 | 12 | 77 | 1.6 | 1.6 | 0.00 | 0.00 | 0.00 | 77 | 1008.0 |
| 20260505030721 | 12 | 75 | 1.6 | 1.6 | 0.00 | 0.00 | 0.00 | 77 | 1007.9 |
| 20260505030220 | 12 | 105 | 0.0 | 0.0 | 0.00 | 0.00 | 0.00 | 76 | 1008.1 |
| 20260505025650 | 12 | 105 | 1.6 | 1.6 | 0.00 | 0.00 | 0.00 | 75 | 1007.9 |
| 20260505025341 | 12 | 140 | 1.6 | 1.6 | 0.00 | 0.00 | 0.00 | 75 | 1008.1 |
| 20260505024620 | 12 | 154 | 0.0 | 0.0 | 0.00 | 0.00 | 0.00 | 74 | 1008.1 |
| 20260505024051 | 13 | 155 | 0.0 | 1.6 | 0.00 | 0.00 | 0.00 | 73 | 1007.9 |
| 20260505023521 | 13 | 154 | 0.0 | 0.0 | 0.00 | 0.00 | 0.00 | 72 | 1008.2 |
| 20260505022950 | 13 | 154 | 1.6 | 1.6 | 0.00 | 0.00 | 0.00 | 71 | 1007.9 |
| 20260505022451 | 13 | 155 | 0.0 | 1.6 | 0.00 | 0.00 | 0.00 | 71 | 1007.8 |
| 20260505021921 | 13 | 181 | 3.2 | 6.4 | 0.00 | 0.00 | 0.00 | 70 | 1008.1 |
| 20260505021350 | 13 | 219 | 1.6 | 4.8 | 0.00 | 0.00 | 0.00 | 70 | 1008.1 |
| 20260505020821 | 13 | 199 | 0.0 | 1.6 | 0.00 | 0.00 | 0.00 | 71 | 1008.0 |
| 20260505020321 | 13 | 190 | 0.0 | 3.2 | 0.00 | 0.00 | 0.00 | 70 | 1008.0 |
| 20260505015751 | 13 | 168 | 1.6 | 3.2 | 0.00 | 0.00 | 0.00 | 70 | 1007.9 |
| 20260505015511 | 13 | 166 | 3.2 | 4.8 | 0.00 | 0.00 | 0.00 | 70 | 1007.7 |
| 20260505014721 | 13 | 175 | 1.6 | 3.2 | 0.00 | 0.00 | 0.00 | 69 | 1007.9 |
| 20260505014151 | 13 | 180 | 3.2 | 4.8 | 0.00 | 0.00 | 0.00 | 70 | 1008.1 |
| 20260505013651 | 13 | 155 | 3.2 | 3.2 | 0.00 | 0.00 | 0.00 | 70 | 1007.8 |
| 20260505013121 | 13 | 142 | 6.4 | 9.7 | 0.00 | 0.00 | 0.00 | 68 | 1008.0 |
| 20260505012842 | 13 | 102 | 4.8 | 6.4 | 0.00 | 0.00 | 0.00 | 68 | 1007.7 |
| 20260505012121 | 13 | 73 | 4.8 | 6.4 | 0.00 | 0.00 | 0.00 | 68 | 1008.0 |
| 20260505011811 | 13 | 81 | 3.2 | 3.2 | 0.00 | 0.00 | 0.00 | 69 | 1008.1 |
| 20260505011051 | 13 | 94 | 1.6 | 3.2 | 0.00 | 0.00 | 0.00 | 69 | 1008.0 |
| 20260505010551 | 14 | 82 | 1.6 | 1.6 | 0.00 | 0.00 | 0.00 | 69 | 1008.0 |
| 20260505010050 | 14 | 68 | 0.0 | 1.6 | 0.00 | 0.00 | 0.00 | 68 | 1008.0 |
| 20260505005520 | 14 | 69 | 1.6 | 3.2 | 0.00 | 0.00 | 0.00 | 68 | 1007.8 |
| 20260505005210 | 14 | 49 | 3.2 | 4.8 | 0.00 | 0.00 | 0.00 | 68 | 1008.1 |
| 20260505004450 | 14 | 92 | 0.0 | 3.2 | 0.00 | 0.00 | 0.00 | 68 | 1008.0 |
| 20260505003921 | 14 | 101 | 3.2 | 3.2 | 0.00 | 0.00 | 0.00 | 68 | 1008.2 |
| 20260505003420 | 14 | 154 | 1.6 | 3.2 | 0.00 | 0.00 | 0.00 | 67 | 1008.3 |
| 20260505002850 | 15 | 80 | 1.6 | 3.2 | 0.00 | 0.00 | 0.00 | 67 | 1008.5 |
| 20260505002541 | 15 | 22 | 1.6 | 4.8 | 0.00 | 0.00 | 0.00 | 66 | 1008.3 |
| 20260505001820 | 15 | 32 | 1.6 | 1.6 | 0.00 | 0.00 | 0.00 | 66 | 1008.5 |
| 20260505001250 | 15 | 11 | 1.6 | 1.6 | 0.00 | 0.00 | 0.00 | 66 | 1008.6 |
| 20260505000750 | 15 | 354 | 1.6 | 3.2 | 0.00 | 0.00 | 0.00 | 65 | 1008.6 |
| 20260505000221 | 15 | 326 | 3.2 | 3.2 | 0.00 | 0.00 | 0.00 | 66 | 1008.9 |
| 20260504235912 | 15 | 15 | 6.4 | 12.9 | 0.00 | 0.00 | 0.00 | 63 | 1008.7 |
| 20260504235121 | 16 | 26 | 3.2 | 4.8 | 0.00 | 0.00 | 0.00 | 61 | 1008.6 |
| 20260504234621 | 16 | 10 | 3.2 | 4.8 | 0.00 | 0.00 | 0.00 | 60 | 1008.7 |
| 20260504234051 | 16 | 251 | 1.6 | 4.8 | 0.00 | 0.00 | 0.00 | 59 | 1008.8 |
| 20260504233521 | 16 | 249 | 4.8 | 11.3 | 0.00 | 0.00 | 0.00 | 59 | 1008.7 |
| 20260504233212 | 16 | 242 | 3.2 | 4.8 | 0.00 | 0.00 | 0.00 | 59 | 1008.6 |
| 20260504232451 | 16 | 274 | 1.6 | 11.3 | 0.00 | 0.00 | 0.00 | 59 | 1008.8 |
| 20260504231921 | 16 | 191 | 3.2 | 3.2 | 0.00 | 0.00 | 0.00 | 58 | 1008.9 |
| 20260504231421 | 16 | 192 | 0.0 | 0.0 | 0.00 | 0.00 | 0.00 | 58 | 1008.7 |
| 20260504230851 | 16 | 199 | 1.6 | 3.2 | 0.00 | 0.00 | 0.00 | 57 | 1008.7 |
| 20260504230541 | 16 | 213 | 6.4 | 9.7 | 0.00 | 0.00 | 0.00 | 58 | 1008.8 |
| 20260504225751 | 16 | 219 | 3.2 | 3.2 | 0.00 | 0.00 | 0.00 | 59 | 1009.1 |
| 20260504225251 | 16 | 98 | 0.0 | 1.6 | 0.00 | 0.00 | 0.00 | 60 | 1008.8 |
| 20260504224721 | 16 | 97 | 0.0 | 0.0 | 0.00 | 0.00 | 0.00 | 59 | 1008.7 |
| 20260504224221 | 16 | 97 | 0.0 | 1.6 | 0.00 | 0.00 | 0.00 | 59 | 1008.7 |
| 20260504223942 | 16 | 98 | 0.0 | 1.6 | 0.00 | 0.00 | 0.00 | 58 | 1008.7 |
| 20260504223221 | 16 | 80 | 1.6 | 1.6 | 0.00 | 0.00 | 0.00 | 58 | 1008.9 |
| 20260504222651 | 16 | 45 | 3.2 | 3.2 | 0.00 | 0.00 | 0.00 | 58 | 1008.7 |
| 20260504222121 | 16 | 32 | 3.2 | 3.2 | 0.00 | 0.00 | 0.00 | 57 | 1008.9 |
| 20260504221621 | 16 | 40 | 1.6 | 4.8 | 0.00 | 0.00 | 0.00 | 56 | 1008.8 |
| 20260504221051 | 16 | 84 | 3.2 | 9.7 | 0.00 | 0.00 | 0.00 | 56 | 1008.9 |
| 20260504220521 | 17 | 123 | 4.8 | 6.4 | 0.00 | 0.00 | 0.00 | 56 | 1009.0 |
| 20260504220021 | 17 | 157 | 4.8 | 4.8 | 0.00 | 0.00 | 0.00 | 53 | 1009.1 |
| 20260504215451 | 17 | 152 | 3.2 | 6.4 | 0.00 | 0.00 | 0.00 | 52 | 1008.6 |
| 20260504214951 | 17 | 176 | 1.6 | 4.8 | 0.00 | 0.00 | 0.00 | 53 | 1008.7 |
| 20260504214421 | 17 | 183 | 3.2 | 3.2 | 0.00 | 0.00 | 0.00 | 54 | 1008.7 |
| 20260504214112 | 17 | 135 | 0.0 | 0.0 | 0.00 | 0.00 | 0.00 | 53 | 1008.7 |
| 20260504213351 | 17 | 135 | 0.0 | 1.6 | 0.00 | 0.00 | 0.00 | 53 | 1008.6 |
| 20260504212851 | 17 | 96 | 0.0 | 0.0 | 0.00 | 0.00 | 0.00 | 53 | 1008.7 |
| 20260504212321 | 18 | 96 | 0.0 | 3.2 | 0.00 | 0.00 | 0.00 | 51 | 1008.5 |
| 20260504211821 | 18 | 314 | 0.0 | 1.6 | 0.00 | 0.00 | 0.00 | 52 | 1008.6 |
| 20260504211542 | 18 | 314 | 0.0 | 0.0 | 0.00 | 0.00 | 0.00 | 51 | 1008.6 |
| 20260504210820 | 18 | 314 | 0.0 | 0.0 | 0.00 | 0.00 | 0.00 | 50 | 1008.6 |
| 20260504210320 | 18 | 314 | 0.0 | 0.0 | 0.00 | 0.00 | 0.00 | 48 | 1008.7 |
| 20260504210041 | 19 | 195 | 0.0 | 1.6 | 0.00 | 0.00 | 0.00 | 47 | 1008.4 |
| 20260504205250 | 19 | 175 | 0.0 | 0.0 | 0.00 | 0.00 | 0.00 | 46 | 1008.7 |
| 20260504204721 | 20 | 175 | 0.0 | 3.2 | 0.00 | 0.00 | 0.00 | 45 | 1008.7 |
| 20260504204220 | 20 | 171 | 3.2 | 3.2 | 0.00 | 0.00 | 0.00 | 45 | 1008.9 |
| 20260504203650 | 20 | 166 | 3.2 | 4.8 | 0.00 | 0.00 | 0.00 | 45 | 1008.7 |
| 20260504203341 | 20 | 210 | 4.8 | 9.7 | 0.00 | 0.00 | 0.00 | 46 | 1008.7 |
| 20260504202620 | 20 | 194 | 3.2 | 4.8 | 0.00 | 0.00 | 0.00 | 47 | 1008.6 |
| 20260504202120 | 20 | 129 | 0.0 | 3.2 | 0.00 | 0.00 | 0.00 | 46 | 1008.7 |
| 20260504201620 | 20 | 158 | 1.6 | 3.2 | 0.00 | 0.00 | 0.00 | 45 | 1008.6 |
| 20260504201050 | 21 | 178 | 3.2 | 3.2 | 0.00 | 0.00 | 0.00 | 45 | 1008.5 |
| 20260504200740 | 21 | 137 | 4.8 | 6.4 | 0.00 | 0.00 | 0.00 | 44 | 1008.6 |
| 20260504200020 | 21 | 108 | 6.4 | 11.3 | 0.00 | 0.00 | 0.00 | 44 | 1008.5 |
| 20260504195937 | 21 | 84 | 9.7 | 16.1 | 0.00 | 0.00 | 0.00 | 44 | 1008.6 |
| 20260504194920 | 21 | 88 | 8.0 | 11.3 | 0.00 | 0.00 | 0.00 | 45 | 1008.5 |
| 20260504194350 | 21 | 35 | 9.7 | 11.3 | 0.00 | 0.00 | 0.00 | 46 | 1008.5 |
| 20260504193850 | 21 | 26 | 8.0 | 12.9 | 0.00 | 0.00 | 0.00 | 47 | 1008.7 |
| 20260504193350 | 21 | 34 | 4.8 | 12.9 | 0.00 | 0.00 | 0.00 | 47 | 1008.8 |
| 20260504193111 | 21 | 32 | 6.4 | 12.9 | 0.00 | 0.00 | 0.00 | 47 | 1008.6 |
| 20260504192320 | 21 | 48 | 9.7 | 14.5 | 0.00 | 0.00 | 0.00 | 46 | 1008.8 |
| 20260504191750 | 21 | 35 | 6.4 | 14.5 | 0.00 | 0.00 | 0.00 | 46 | 1008.5 |
| 20260504191221 | 21 | 17 | 4.8 | 6.4 | 0.00 | 0.00 | 0.00 | 47 | 1008.7 |
| 20260504190650 | 21 | 34 | 3.2 | 4.8 | 0.00 | 0.00 | 0.00 | 46 | 1009.0 |
| 20260504190411 | 21 | 57 | 6.4 | 6.4 | 0.00 | 0.00 | 0.00 | 46 | 1008.8 |
| 20260504185650 | 21 | 39 | 4.8 | 9.7 | 0.00 | 0.00 | 0.00 | 46 | 1008.6 |
| 20260504185120 | 21 | 34 | 4.8 | 6.4 | 0.00 | 0.00 | 0.00 | 45 | 1009.0 |
| 20260504184810 | 21 | 331 | 6.4 | 9.7 | 0.00 | 0.00 | 0.00 | 44 | 1008.9 |
| 20260504184050 | 21 | 328 | 4.8 | 6.4 | 0.00 | 0.00 | 0.00 | 44 | 1008.9 |
| 20260504183550 | 21 | 310 | 4.8 | 9.7 | 0.00 | 0.00 | 0.00 | 44 | 1008.7 |
| 20260504183050 | 21 | 338 | 4.8 | 6.4 | 0.00 | 0.00 | 0.00 | 44 | 1008.9 |
| 20260504182550 | 22 | 305 | 6.4 | 6.4 | 0.00 | 0.00 | 0.00 | 44 | 1008.9 |
| 20260504182311 | 22 | 303 | 8.0 | 11.3 | 0.00 | 0.00 | 0.00 | 43 | 1008.9 |
| 20260504181520 | 22 | 310 | 3.2 | 4.8 | 0.00 | 0.00 | 0.00 | 43 | 1008.8 |
| 20260504180950 | 22 | 324 | 3.2 | 6.4 | 0.00 | 0.00 | 0.00 | 43 | 1009.0 |
| 20260504180451 | 22 | 321 | 3.2 | 6.4 | 0.00 | 0.00 | 0.00 | 44 | 1008.9 |
| 20260504175920 | 22 | 304 | 3.2 | 6.4 | 0.00 | 0.00 | 0.00 | 44 | 1009.1 |
| 20260504175350 | 22 | 297 | 1.6 | 6.4 | 0.00 | 0.00 | 0.00 | 43 | 1008.9 |
| 20260504174850 | 22 | 316 | 0.0 | 1.6 | 0.00 | 0.00 | 0.00 | 43 | 1008.9 |
| 20260504174321 | 22 | 310 | 3.2 | 4.8 | 0.00 | 0.00 | 0.00 | 42 | 1008.9 |
| 20260504173750 | 22 | 317 | 0.0 | 3.2 | 0.00 | 0.00 | 0.00 | 42 | 1008.8 |
| 20260504173510 | 22 | 321 | 3.2 | 9.7 | 0.00 | 0.00 | 0.00 | 43 | 1008.8 |
| 20260504172720 | 22 | 319 | 4.8 | 6.4 | 0.00 | 0.00 | 0.00 | 42 | 1008.6 |
| 20260504172220 | 22 | 317 | 3.2 | 4.8 | 0.00 | 0.00 | 0.00 | 42 | 1008.6 |
| 20260504171650 | 23 | 320 | 3.2 | 4.8 | 0.00 | 0.00 | 0.00 | 41 | 1008.6 |
| 20260504171121 | 23 | 305 | 6.4 | 11.3 | 0.00 | 0.00 | 0.00 | 39 | 1009.0 |
| 20260504170812 | 23 | 301 | 4.8 | 11.3 | 0.00 | 0.00 | 0.00 | 38 | 1008.9 |
| 20260504160220 | 25 | 21 | 0.0 | 1.6 | 0.00 | 0.00 | 0.00 | 34 | 1009.0 |
| 20260504151040 | 25 | 47 | 3.2 | 11.3 | 0.00 | 0.00 | 0.00 | 35 | 1009.5 |
| 20260504150320 | 26 | 15 | 8.0 | 11.3 | 0.00 | 0.00 | 0.00 | 34 | 1009.5 |
| 20260504141121 | 26 | 54 | 3.2 | 4.8 | 0.00 | 0.00 | 0.00 | 37 | 1010.5 |
| 20260504140551 | 26 | 356 | 4.8 | 6.4 | 0.00 | 0.00 | 0.00 | 36 | 1010.4 |
| 20260504140312 | 26 | 21 | 6.4 | 9.7 | 0.00 | 0.00 | 0.00 | 37 | 1010.4 |
| 20260504130221 | 26 | 323 | 1.6 | 6.4 | 0.00 | 0.00 | 0.00 | 36 | 1011.2 |
| 20260504120311 | 26 | 159 | 9.7 | 16.1 | 0.00 | 0.00 | 0.00 | 36 | 1012.3 |